User: anonymous   Login
Location: Beneden-Haastrecht
(52.0012°N, 4.7557°E)
Time: 02:22:15
(UTC+00:00)
Language:

SKYMED 2 - Orbit

View from above orbital plane
View from above orbital plane
View from above satellite
View from above satellite

Ground track
Ground track

The orbit data is extracted from the following two-line orbital elements,

1 32376U 07059A   21018.73509599  .00000004  00000-0  70123-5 0  9993
2 32376  97.8828 204.7684 0001306  87.9942 272.1482 14.82157639709463
Epoch (UTC): 18 January 2021 17:38:32
Eccentricity: 0.0001306
inclination: 97.8828°
perigee height: 621 km
apogee height: 623 km
right ascension of ascending node: 204.7684°
argument of perigee: 87.9942°
revolutions per day: 14.82157639
mean anomaly at epoch: 272.1482°
orbit number at epoch: 70946

The dashed part of the orbit path shows where the satellite is in the earth's shadow,  

DLR